Auburn-Lewiston, ME

5:47 AM EST on December 16, 2019 (GMT -0500)
Auburn-Lewiston Municipal

Weather History for KLEW - November, 2019

Change the Weather History Date:

Thursday, November 14, 2019

  Actual Average Record
Temperature  
Mean Temperature 18 °F -  
Max Temperature 30 °F 42 °F 62 °F (2005)
Min Temperature 5 °F 27 °F 5 °F (2019)
Degree Days  
Heating Degree Days 48    
Moisture  
Dew Point 15 °F    
Average Humidity 78    
Maximum Humidity 92    
Minimum Humidity 60    
Precipitation  
Precipitation 0.00 in - - ()
Sea Level Pressure  
Sea Level Pressure 30.43 in    
Wind  
Wind Speed 2 mph (SSW)    
Max Wind Speed 12 mph    
Max Gust Speed -    
Visibility 10 miles    
Events Snow    
Averages and records for this station are not official NWS values.
T = Trace of Precipitation, MM = Missing Value Source: NWS Daily Summary

Daily Weather History Graph

Daily Weather History Graph

Search for Another Location

Airport or City:

Astronomy

Nov. 14, 2019 Rise Set
Actual Time 6:34 AM EST 4:15 PM EST
Civil Twilight 6:03 AM EST 4:47 PM EST
Nautical Twilight 5:28 AM EST 5:21 PM EST
Astronomical Twilight 4:54 AM EST 5:55 PM EST
Moon 5:56 PM EST (11/14) 8:29 AM EST (11/14)
Length of Visible Light 10h 43m
Length of Day
9h 41m
Waning Gibbous, 95% of the Moon is Illuminated
Nov 14
Waning Gibbous
Nov 19
Last Quarter
Nov 26
New
Dec 4
First Quarter
Dec 12
Full

Hourly Weather History & Observations

Time (EST) Temp. Windchill Dew Point Humidity Pressure Visibility Wind Dir Wind Speed Gust Speed Precip Events Conditions
1:56 AM 9.0 °F 2.4 °F 7.0 °F 92% 30.50 in 10.0 mi North 3.5 mph - N/A   Clear
2:56 AM 7.0 °F - 3.0 °F 84% 30.49 in 10.0 mi Calm Calm - N/A   Clear
3:56 AM 5.0 °F - 1.0 °F 84% 30.50 in 10.0 mi Calm Calm - N/A   Clear
4:56 AM 5.0 °F - 1.0 °F 84% 30.52 in 10.0 mi Calm Calm - N/A   Clear
5:56 AM 5.0 °F - 1.9 °F 87% 30.52 in 10.0 mi Calm Calm - N/A   Clear
6:56 AM 6.1 °F - 3.0 °F 87% 30.53 in 10.0 mi Calm Calm - N/A   Clear
7:56 AM 12.0 °F - 8.1 °F 84% 30.54 in 10.0 mi Calm Calm - N/A   Overcast
8:56 AM 18.0 °F - 14.0 °F 84% 30.53 in 10.0 mi Calm Calm - N/A   Partly Cloudy
9:56 AM 25.0 °F - 19.0 °F 78% 30.53 in 10.0 mi Calm Calm - N/A   Clear
10:48 AM 28.4 °F - 17.6 °F 64% 30.47 in 10.0 mi Calm Calm - N/A   Overcast
10:56 AM 28.9 °F - 18.0 °F 64% 30.50 in 10.0 mi Calm Calm - N/A   Overcast
11:13 AM 30.2 °F - 17.6 °F 60% 30.45 in 10.0 mi Calm Calm - N/A   Scattered Clouds
11:56 AM 28.9 °F 21.9 °F 19.0 °F 67% 30.46 in 10.0 mi South 6.9 mph - N/A   Clear
1:56 PM 28.0 °F 19.3 °F 18.0 °F 66% 30.42 in 10.0 mi South 9.2 mph - N/A   Overcast
2:56 PM 28.9 °F 23.9 °F 19.0 °F 67% 30.41 in 10.0 mi South 4.6 mph - N/A   Overcast
3:56 PM 28.9 °F 19.2 °F 19.9 °F 69% 30.40 in 8.0 mi SSW 11.5 mph - 0.00 in Snow Light Snow
4:56 PM 28.0 °F 20.8 °F 21.0 °F 75% 30.38 in 10.0 mi South 6.9 mph - 0.00 in   Overcast
5:56 PM 28.0 °F - 21.0 °F 75% 30.37 in 10.0 mi Calm Calm - 0.00 in   Overcast
6:56 PM 27.0 °F - 21.0 °F 78% 30.35 in 10.0 mi Calm Calm - N/A   Overcast
7:56 PM 27.0 °F - 21.0 °F 78% 30.32 in 10.0 mi Calm Calm - N/A   Overcast
8:56 PM 27.0 °F 23.0 °F 23.0 °F 85% 30.31 in 10.0 mi NNW 3.5 mph - N/A   Overcast
9:56 PM 27.0 °F - 23.0 °F 85% 30.29 in 10.0 mi Calm Calm - N/A   Scattered Clouds
10:56 PM 25.0 °F - 21.0 °F 85% 30.28 in 10.0 mi Calm Calm - N/A   Mostly Cloudy
11:56 PM 25.0 °F - 21.9 °F 88% 30.26 in 10.0 mi Calm Calm - N/A   Overcast